LiveATC.Net - Listen to live air traffic control over the Internet!


ICAO: KPTW  IATA: PTW   Airport: Heritage Field Airport
City: Coatesville   State/Province: Pennsylvania
Country: United States   Continent: North America
KPTW METAR Weather: KPTW 250254Z AUTO 00000KT 10SM FEW075 15/12 A3025 RMK AO2 SLP241 T01500122 51013
KPTW Flight Activity (FlightAware)
KPTW Airport Info   (iFlightPlanner)
KPTW VFR Sectional Chart   (iFlightPlanner) 
KPTW IFR Low Chart   (iFlightPlanner) 

KMQS/KPTW CTAF
Feed Status: UP   Listeners: 0
Listen in your browser - HTML5 player (in browser, HTML5)
Click here to listen with your own player (launches your MP3 player)
KMQS/KPTW CTAF Audio Archives
FacilityFrequency
Chester County CTAF122.700
Pottstown CTAF122.700

NOTICE

Unauthorized use prohibited. See LiveATC.net Terms of Service


Airport/ARTCC Code
Frequency Search
(e.g., 124.400, 128.75)
Site-wide search
 


Browse LiveATC Feeds
Top 50 LiveATC Feeds
LiveATC Feed Map
Bad Weather Areas

LiveATC FAQ
Offer LiveATC feed
Contact LiveATC.net
Press Inquiries

LiveATC on iPhone
LiveATC on Android

Windows Phone
Windows 8/10

LiveATC Mobile
(Mobile browser)

ATC Audio Archives
Interesting Recordings

LiveATC Forums


Home Page
About LiveATC.net
Make a Donation
Terms of Use
Privacy Policy

Canadian Air Freqs

AIRMETs/SIGMETs

FAA Airport Status
Nat'l Airspace Status
Arrival Demand Charts


Server Software By:
Icecast.org
Liquidsoap